Regional Weather Roundup
Issued by NWS

Home | Current Version | Previous Version | Graphics & Text | Print | Product List | Glossary On
Versions: 1 2 3 4 5 6 7 8 9 10 11 12 13 14 15 16 17 18 19 20 21 22 23 24 25 26 27 28 29 30 31 32 33 34 35 36 37 38 39 40 41 42 43 44 45 46 47 48 49 50
364
ASUS45 KBOU 112210
RWRCO

WEATHER ROUNDUP FOR COLORADO
NATIONAL WEATHER SERVICE DENVER/BOULDER CO
300 PM MST MON DEC 11 2017

NOTE: "FAIR" INDICATES FEW OR NO CLOUDS BELOW 12000 FEET WITH NO
SIGNIFICANT WEATHER AND/OR OBSTRUCTIONS TO VISIBILITY.

COZ001>005-013-030-031-112300-
...NORTHWEST COLORADO...

CITY           SKY/WX    TMP DP  RH WIND       PRES   REMARKS
CRAIG          FAIR      36  16  44 CALM      30.50S
HAYDEN         FAIR      35  16  45 CALM      30.51R
MEEKER         FAIR      53  -7   8 SW5       30.46S
RABBIT EARS PA FAIR      30  10  43 W10G20    30.54R WCI  21
STEAMBOAT SPGS FAIR      37  13  36 CALM      30.50R
WALDEN         FAIR      39   9  28 CALM      30.50R
$$

COZ006>008-011-112300-
...WEST CENTRAL VALLEYS...

CITY           SKY/WX    TMP DP  RH WIND       PRES   REMARKS
GRAND JUNCTION FAIR      48   4  16 CALM      30.45F
MONTROSE       FAIR      47  -1  13 NW3       30.47F
EAGLE          FAIR      38   7  27 CALM      30.53F
RIFLE          FAIR      49   2  14 W3        30.45F
DELTA          FAIR      52  -2  10 SW6       30.45F
NUCLA          FAIR      46  -6  11 CALM      30.47F
$$

COZ017>023-064>068-112300-
...SOUTHWEST COLORADO...

CITY           SKY/WX    TMP DP  RH WIND       PRES   REMARKS
DURANGO        FAIR      50   5  16 W8        30.38F
CORTEZ         FAIR      46   2  16 SW7       30.41S
PAGOSA SPRINGS FAIR      55  -6   8 SW5       30.39S
TELLURIDE      FAIR      51  -3  10 NW8       30.50S
WOLF CREEK PAS FAIR      37  -6  15 NW5       30.61S
$$

COZ009-010-012-014-032>034-037-058>063-112300-
...CENTRAL COLORADO...

CITY           SKY/WX    TMP DP  RH WIND       PRES   REMARKS
ASPEN          FAIR      51  -1  11 N8        30.46F
BUENA VISTA    FAIR      52  -2  10 NW22G28   30.40R
COPPER MTN     NOT AVBL
BERTHOUD PASS  FAIR      21  10  63 NW35G43   30.51R HAZE    WCI   2
COTTONWOOD PAS FAIR      50  -9   8 NW7G25    30.46R
GUNNISON       FAIR      42   0  17 VRB6      30.47F
KREMMLING      FAIR      34  18  51 CALM      30.55R
LEADVILLE      FAIR      40   4  22 N15G24    30.47S
MONARCH PASS   FAIR      32  -4  21 W20G29    30.64F WCI  20
SALIDA         FAIR      58  -6   7 N3        30.44S
SUNLIGHT       FAIR      34   3  27 W3        30.60S
WILKERSON PASS FAIR      37 -13  11 NW13G29   30.52R
$$

COZ069>075-112300-
...SAN LUIS VALLEY/SANGRE DE CRISTO MOUNTAINS...

CITY           SKY/WX    TMP DP  RH WIND       PRES   REMARKS
ALAMOSA        FAIR      50  -8   9 CALM      30.39F
DEL NORTE      FAIR      47  -1  13 E5        30.41F
LA VETA PASS   FAIR      43   0  16 SW20G26     N/A
SAGUACHE       FAIR      48   0  13 SE5       30.41S
$$

COZ035-036-038>040-112300-
...NORTHERN COLORADO FRONT RANGE...

CITY           SKY/WX    TMP DP  RH WIND       PRES   REMARKS
DENVER INTL AP FAIR      54   4  13 NE12      30.35R
DMNS CITY PARK NOT AVBL
AURORA         MOSUNNY   55   3  12 NE13      30.36R
FRONT RANGE AP MOSUNNY   55   5  13 NE10      30.36R
ERIE MUNI ARPT FAIR      58   0   9 NE6       30.40R
BOULDER MUN AP FAIR      55   9  15 CALM      30.35R
CENTENNIAL     FAIR      53   6  15 NE10      30.36R
BROOMFIELD     MOSUNNY   57   3  11 NE9       30.36R
FORT COLLINS   FAIR      56  10  16 SW6       30.35R
LONGMONT       FAIR      59   7  12 CALM      30.36R
$$

COZ041-046-047-076>085-087-088-112300-
...PIKES PEAK/PALMER DIVIDE AND SOUTHERN FOOTHILLS...

CITY           SKY/WX    TMP DP  RH WIND       PRES   REMARKS
COLO. SPRINGS  FAIR      55  -3   9 E7        30.34R
A. F. ACADEMY  FAIR      57  -6   7 NE13      30.33R
SCHRIEVER AFB  FAIR      53  -3  10 S3        30.35R
CHEYENNE MTN   FAIR      48  -2  12 CALM      30.31R
ELLICOTT         N/A    N/A N/A N/A E6        30.34R
FALCON         FAIR      52  -3  10 NE15      30.38R
FORT CARSON    FAIR      57  -7   7 SE5       30.32R
LIMON          FAIR      52   4  14 N24       30.33R
MONUMENT HILL  FAIR      46   1  15 NE12      30.40R
CANON CITY     FAIR      61   3  10 E12G17    30.30R
WALSENBURG     FAIR      59   3  10 E14       30.30R
TRINIDAD       FAIR      58   0   9 E12       30.29S
$$

COZ042>045-048>051-090-091-112300-
...NORTHEAST COLORADO...

CITY           SKY/WX    TMP DP  RH WIND       PRES   REMARKS
GREELEY ARPT   FAIR      58   9  14 N29G36    30.32R
AKRON          FAIR      50   7  17 N22G36    30.34R
BURLINGTON     FAIR      54  12  18 N25G37    30.30R
WRAY           FAIR      54   7  15 NW28G36   30.31R
YUMA           FAIR      52   7  16 N28G37    30.31S
STERLING       FAIR      54  10  17 N24G35    30.32R
HOLYOKE        FAIR      54   5  14 N31G40    30.30R
FORT MORGAN    FAIR      54   6  14 N22       30.35R
$$

COZ086-089-092>099-112300-
...SOUTHEAST COLORADO...

CITY           SKY/WX    TMP DP  RH WIND       PRES   REMARKS
PUEBLO         FAIR      59   0   9 SE14      30.29R
LA JUNTA       FAIR      62   3   9 NE12      30.30R
LAMAR          FAIR      62   8  12 N16       30.28R
SPRINGFIELD      N/A     57   8  14 N13       30.29R
$$




USA.gov is the U.S. government's official web portal to all federal, state and local government web resources and services.